{"data":{"norad_id":46810,"intl_designator":"2020-076D","name":"TIANQI-6","alt_names":[],"object_type":"PAYLOAD","status":"ACTIVE","operator":null,"country":"PRC","launch_date":"2020-10-26","launch_site_code":"XICLF","launch_vehicle":null,"mission":null,"orbit_class":"UNKNOWN","rcs_meters":null,"size_class":null,"mass_kg":null,"dimensions":null,"purposes":[],"wikipedia_slug":null,"has_3d_model":false,"image_url":null,"decayed_at":null,"tle_current":{"epoch":"2026-09-20T04:15:02.932992Z","epoch_age_seconds":35794,"freshness":"FRESH","line1":"1 46810U 20076D   26263.17711728  .00002344  00000+0  15213-3 0  9994","line2":"2 46810  34.9980 185.2322 0011251 285.3649  74.5818 15.07703895322920","mean_motion":15.07703895,"eccentricity":0.0011251,"inclination_deg":34.998,"raan_deg":185.2322,"arg_perigee_deg":285.3649,"mean_anomaly_deg":74.5818,"bstar":0.00015213,"rev_number":32292,"period_min":95.509470047499,"perigee_km":535.43097115014,"apogee_km":551.00540459389,"semimajor_km":6921.355187872,"source":"CELESTRAK","updated_at":"2026-09-20T09:00:14.799155Z"}}}